This is the latest recevied weather packets stored in our database for station/object KB1JLI. If no packets are shown the sender has not sent any weather packets the latest 10 day(s).
| Time | Temp. | Humidity | Pressure | Rain* | Wind** | Luminosity | Snow |
|---|---|---|---|---|---|---|---|
| 1777288455 | 4.44° C | 86% | 1024.6 hPa | 0 mm | - | 33 W/m² | - |
| 1777288151 | 4.44° C | 87% | 1024.6 hPa | 0 mm | - | 34 W/m² | - |
| 1777287847 | 3.89° C | 88% | 1024.7 hPa | 0 mm | - | 29 W/m² | - |
| 1777287544 | 3.33° C | 89% | 1024.5 hPa | 0 mm | - | 28 W/m² | - |
| 1777287240 | 2.78° C | 89% | 1024.6 hPa | 0 mm | - | 27 W/m² | - |
| 1777286937 | 2.78° C | 89% | 1024.5 hPa | 0 mm | - | 26 W/m² | - |
| 1777286634 | 2.78° C | 90% | 1024.4 hPa | 0 mm | - | 24 W/m² | - |
| 1777286331 | 2.78° C | 89% | 1024.3 hPa | 0 mm | - | 23 W/m² | - |
| 1777286028 | 2.78° C | 89% | 1024.2 hPa | 0 mm | - | 21 W/m² | - |
| 1777285726 | 2.22° C | 89% | 1024.4 hPa | 0 mm | - | 19 W/m² | - |
| 1777285423 | 2.22° C | 89% | 1024.3 hPa | 0 mm | - | 17 W/m² | - |
| 1777285120 | 2.22° C | 89% | 1024.1 hPa | 0 mm | - | 14 W/m² | - |
| 1777284817 | 2.22° C | 89% | 1024 hPa | 0 mm | - | 13 W/m² | - |
| 1777284514 | 2.22° C | 89% | 1024.2 hPa | 0 mm | - | 11 W/m² | - |
| 1777284211 | 2.22° C | 89% | 1023.8 hPa | 0 mm | - | 9 W/m² | - |
| 1777283908 | 2.78° C | 89% | 1023.7 hPa | 0 mm | - | 6 W/m² | - |
| 1777283604 | 2.78° C | 89% | 1023.6 hPa | 0 mm | - | 5 W/m² | - |
| 1777283303 | 2.78° C | 89% | 1023.7 hPa | 0 mm | - | 3 W/m² | - |
| 1777283002 | 2.78° C | 89% | 1023.6 hPa | 0 mm | - | 2 W/m² | - |
| 1777282701 | 2.78° C | 89% | 1023.7 hPa | 0 mm | - | 1 W/m² | - |
| 1777282398 | 2.22° C | 89% | 1023.6 hPa | 0 mm | - | 0 W/m² | - |
| 1777282096 | 2.78° C | 88% | 1023.5 hPa | 0 mm | - | 0 W/m² | - |
| 1777281793 | 2.78° C | 88% | 1023.5 hPa | 0 mm | - | 0 W/m² | - |
| 1777281490 | 2.78° C | 87% | 1023.4 hPa | 0 mm | - | 0 W/m² | - |
| 1777281186 | 2.78° C | 87% | 1023.3 hPa | 0 mm | - | 0 W/m² | - |
* Rain latest hour (hover to see other rain measurements)
** Current wind speed in m/s (hover to see current wind gust speed)